Lid_Strength_Index
8 8 7 6 7 6 6 5 5 6 6 7 8 9 9 10 10 10 10 10 9 9
8 8 9 8 7 6 6 6 5 5 6 6 8 8 9 11 11 11 10 9 9 10
9 8 8 8 9 8 7 6 6 5 5 6 7 8 9 11 11 12 11 11 10 10
9 9 8 9 9 9 9 8 7 7 6 6 6 8 9 10 11 11 11 11 11 10
9 9 10 10 9 9 9 9 9 8 7 7 7 7 9 9 10 11 11 11 11 11
9 9 10 11 10 10 11 11 9 8 8 7 8 7 8 9 10 10 11 11 11 11
10 10 10 11 11 11 11 11 11 10 11 11 11 10 11 9 9 10 10 11 11 11
10 10 11 11 12 12 11 11 11 11 11 10 10 8 8 9 9 10 11 11 11 10
12 12 12 12 13 13 12 11 11 11 11 11 9 8 8 8 9 11 11 12 12 11
12 13 13 13 14 13 13 11 12 11 11 11 10 9 8 8 9 10 11 11 12 12
13 14 13 13 14 13 11 11 11 11 11 11 10 9 8 8 9 9 11 11 12 12
11 13 13 14 13 10 11 11 11 11 11 11 11 9 9 9 9 10 10 11 11 12
10 12 13 11 11 10 10 10 10 11 11 11 10 9 9 9 10 10 10 11 12 12
9 10 9 9 9 10 10 10 11 10 10 11 10 10 9 8 10 10 10 10 12 12